RH
57 47 51 51 52 54 72 79 58 46 66 82 74 53 60 54 54 52 56 60 64 60 45 40 41 40 38 38 38 38 38 40 44 44 42 42 45 47 49 46 44 43 44
58 45 50 53 52 55 91 98 81 58 50 67 83 89 78 62 49 45 49 52 54 57 58 55 47 43 43 44 46 43 42 39 42 47 47 45 46 49 51 54 54 54 53
60 63 59 62 60 57 59 59 86 100 84 69 66 74 68 58 54 57 57 52 49 54 60 58 59 53 49 47 50 51 49 50 47 44 46 49 50 52 53 54 58 62 61
76 78 70 63 64 73 67 81 75 71 98 75 76 68 80 72 65 60 56 54 54 49 54 63 64 60 64 56 53 55 58 57 59 56 50 46 48 51 54 56 56 60 60
64 74 62 58 61 68 80 94 89 82 95 100 90 85 99 99 86 72 67 61 61 61 57 60 65 69 66 67 66 63 66 72 65 60 63 60 54 52 53 54 56 56 58
30 26 21 20 20 40 55 45 52 74 77 99 100 90 88 84 89 86 74 73 72 73 75 72 68 79 73 74 81 80 68 78 76 81 70 67 73 73 66 65 63 64 64
21 20 20 19 17 24 44 66 37 42 46 54 70 71 73 67 65 73 81 85 75 78 79 89 87 90 86 80 82 80 68 80 79 82 85 85 82 74 75 77 86 89 76
27 25 25 21 19 20 23 60 100 85 57 57 65 65 56 52 47 61 66 76 83 81 68 76 89 98 98 80 75 73 78 80 74 68 75 84 87 85 83 81 70 72 72
34 30 30 32 27 22 22 34 85 62 61 55 44 42 34 27 27 35 39 55 74 85 76 62 81 89 95 95 80 73 64 66 69 66 68 83 99 100 100 100 98 95 100
49 48 44 39 36 34 30 26 31 53 44 36 40 51 37 22 30 37 39 44 63 89 94 83 69 78 87 91 86 84 76 74 77 77 75 83 79 76 98 100 100 100 100
58 59 58 56 50 45 42 40 37 36 46 44 42 45 42 32 28 30 30 31 47 75 88 84 91 85 91 95 92 91 95 93 93 93 91 90 92 86 79 80 88 91 90
60 61 62 63 62 58 53 49 47 46 44 46 67 75 75 71 69 63 53 39 32 31 36 72 69 62 58 63 96 99 100 100 93 98 94 88 86 86 89 96 96 97 94
62 58 60 59 61 62 62 60 56 56 54 54 49 59 71 88 93 89 85 76 68 46 36 44 53 53 50 43 67 94 93 95 92 81 74 67 70 75 86 91 97 92 76
66 68 65 61 62 64 67 72 72 69 65 58 56 47 41 68 80 93 100 100 100 100 87 44 37 63 74 72 71 81 85 77 74 68 49 52 66 68 76 77 73 67 58
82 87 89 83 71 70 72 74 76 83 83 77 75 70 67 49 40 46 60 78 90 96 100 100 63 70 86 81 94 99 100 96 86 77 72 68 69 69 69 67 67 58 52
56 60 72 71 74 79 81 88 100 100 100 100 97 95 96 96 90 82 62 47 57 74 88 94 100 85 68 93 100 100 100 100 100 90 88 87 85 89 78 74 61 57 52
42 42 42 44 52 58 62 83 86 80 77 98 100 100 100 100 100 98 86 77 64 50 57 71 87 94 100 96 82 78 100 100 100 100 98 100 95 89 84 73 73 66 65
57 48 45 43 39 51 50 50 49 52 56 60 65 63 71 79 88 78 82 80 78 72 54 55 54 82 86 85 97 99 77 88 100 100 100 99 97 91 89 90 87 86 83
66 62 60 57 62 50 58 75 80 74 62 56 55 56 55 48 43 48 56 64 66 67 73 62 53 50 70 81 84 74 71 69 72 94 100 100 99 100 100 100 100 100 99
34 34 32 32 41 54 46 46 45 46 46 43 42 46 47 45 42 38 36 42 44 54 61 58 53 62 55 53 45 52 71 66 73 71 60 78 76 68 71 74 96 100 100
18 23 24 25 26 29 31 32 32 31 31 32 36 38 38 38 37 36 33 28 28 32 36 46 46 42 43 53 51 57 57 44 40 48 62 73 75 84 74 57 58 80 89
17 14 15 16 15 15 14 14 13 12 12 13 14 14 13 12 14 15 17 19 19 16 17 27 34 43 40 35 50 47 40 51 44 48 51 44 43 58 73 82 84 82 93
17 18 18 17 16 14 13 12 12 14 13 14 12 10 10 10 9 8 8 8 8 7 6 8 16 32 43 41 39 39 38 48 82 80 92 100 88 71 61 64 89 84 90
16 15 15 15 14 13 11 10 11 11 10 10 10 9 9 8 7 7 7 6 6 7 7 6 6 9 26 44 41 41 54 53 88 100 100 96 98 85 70 70 82 70 73
21 19 17 16 14 13 12 12 12 11 11 10 9 8 7 6 6 6 6 6 5 6 6 7 7 6 7 19 41 43 59 91 99 100 100 100 100 93 100 75 85 95 96
36 33 30 27 26 21 17 17 16 14 13 11 10 8 7 6 5 5 5 5 4 5 5 6 6 6 6 7 15 34 44 78 100 100 90 100 100 100 100 100 98 86 92
Wind_Speed
38 36 33 33 34 30 28 28 27 27 24 21 22 21 18 15 14 14 14 13 13 13 13 12 12 11 10 11 12 12 9 9 9 9 9 9 9 10 11 11 12 12 12
41 37 34 35 37 36 35 32 31 31 29 26 25 23 22 21 18 17 17 19 18 16 16 15 16 15 14 14 14 14 14 13 12 11 12 12 12 12 12 11 12 13 14
38 38 37 36 40 39 40 38 35 35 34 31 30 29 29 28 27 27 27 24 23 23 22 22 22 21 20 19 18 18 17 16 17 16 14 14 14 13 13 13 15 15 15
40 41 42 43 40 40 41 41 43 41 40 38 36 34 33 33 33 31 31 31 30 30 28 27 28 27 25 24 23 21 21 20 19 20 20 20 19 18 17 17 17 17 17
45 46 48 46 45 46 46 48 48 44 43 42 41 39 38 37 37 38 37 37 37 35 35 33 32 32 30 28 27 26 25 24 23 22 21 23 24 25 23 22 22 22 22
42 41 41 39 41 45 48 49 49 47 48 46 42 43 46 44 43 42 43 42 41 41 40 39 38 36 34 33 31 30 30 29 29 27 26 25 26 27 27 27 28 27 27
35 36 37 37 36 35 37 37 41 42 46 50 50 49 49 49 49 48 47 47 44 44 43 42 40 41 38 37 36 35 35 34 34 33 33 32 32 31 31 31 31 31 32
34 32 31 32 32 30 30 31 30 33 37 41 46 48 50 51 50 50 49 48 45 46 46 44 43 43 43 41 40 39 38 38 38 37 37 37 37 36 36 37 35 34 36
36 36 34 33 33 32 31 31 33 32 32 35 38 39 39 40 42 44 46 48 48 48 45 46 45 45 46 43 42 43 43 42 42 42 41 40 39 39 39 40 41 41 41
41 40 39 37 37 35 34 32 35 34 33 36 35 35 35 35 34 36 39 41 44 46 46 47 46 44 45 48 47 47 47 45 45 45 45 44 44 44 43 43 43 43 44
44 44 44 43 41 41 41 40 39 38 37 37 37 36 36 34 33 33 34 38 42 43 44 45 47 48 47 49 51 50 50 49 48 49 48 47 46 46 46 47 49 49 49
50 50 50 50 49 48 47 46 46 45 44 42 40 42 41 39 37 35 35 36 37 40 44 45 46 47 47 49 50 50 51 50 50 51 51 51 50 49 49 50 50 52 55
57 55 56 56 56 55 54 52 52 51 50 48 47 45 44 46 45 42 42 41 40 40 41 43 44 46 48 48 48 48 50 51 52 51 50 50 49 47 48 49 50 49 47
65 63 62 62 62 61 61 60 59 60 58 57 53 52 51 47 49 49 47 46 45 44 44 45 44 43 43 46 49 51 54 56 56 53 51 49 46 46 46 42 42 43 42
70 69 68 68 68 68 68 66 65 65 66 65 65 63 59 56 57 55 53 49 49 50 50 49 48 47 46 44 45 46 49 51 50 49 48 48 46 45 44 44 43 41 39
77 77 77 76 74 72 72 71 71 72 72 72 72 71 69 68 66 64 63 61 58 56 55 55 53 52 51 51 50 48 50 50 51 52 50 49 50 50 49 48 44 41 36
79 78 79 79 80 80 78 77 76 78 77 77 79 79 78 76 76 77 74 70 68 66 62 60 60 57 57 56 57 56 52 53 55 56 56 56 56 55 53 50 46 44 43
86 85 84 81 83 83 83 83 84 83 83 83 85 86 87 87 85 84 82 79 82 78 71 70 66 63 62 59 57 59 59 59 57 56 56 59 58 56 54 52 51 50 48
89 89 91 91 90 88 87 88 89 90 89 88 89 89 90 92 91 90 89 89 88 84 83 82 77 72 65 62 62 63 62 60 63 63 61 63 62 59 57 57 55 54 53
87 88 89 92 94 94 92 91 92 93 95 96 97 96 96 96 96 95 92 90 92 91 91 91 87 82 78 77 76 74 71 69 66 66 64 67 70 69 69 66 61 59 57
77 78 81 83 86 90 94 97 99 101 101 102 104 104 105 106 106 106 104 101 98 95 93 92 93 91 91 90 85 80 79 77 73 72 75 76 74 74 75 74 69 68 68
80 81 81 82 83 84 86 88 89 90 90 92 94 96 98 100 102 104 104 103 102 100 97 98 100 96 95 95 93 92 85 84 78 79 84 83 80 80 78 74 70 70 69
85 86 86 86 86 88 90 90 89 90 92 95 96 95 98 101 102 102 102 102 102 100 97 94 94 95 95 96 96 95 88 79 81 81 82 85 88 87 83 82 83 79 77
86 84 85 87 87 88 89 89 90 93 93 94 96 100 103 104 106 106 104 103 102 101 100 97 95 93 97 95 97 95 92 77 57 73 78 83 88 89 86 83 88 84 85
76 75 74 76 78 80 82 84 85 87 86 88 91 95 100 102 104 105 105 104 102 101 102 101 100 97 96 97 98 97 93 69 66 71 80 78 82 97 95 96 93 90 89
67 67 68 69 70 71 72 74 76 77 79 82 85 88 92 96 95 95 96 97 96 96 97 101 101 100 98 98 100 100 97 89 83 90 94 84 100 97 100 107 105 102 96
Wind_Direction
259 260 262 260 263 268 266 266 267 263 257 254 248 250 254 257 261 264 271 275 282 290 292 291 291 295 298 298 301 297 295 301 303 307 310 314 325 331 334 328 320 314 305
257 258 262 264 262 263 268 264 264 260 260 255 256 257 264 264 262 261 268 273 270 274 280 285 287 286 283 289 295 294 296 291 296 298 297 299 303 312 320 324 322 324 326
258 261 263 267 264 263 260 266 268 263 258 258 253 259 261 261 263 264 269 272 271 269 270 276 278 279 278 278 280 284 287 292 292 287 288 289 289 292 299 301 306 308 311
258 261 265 267 266 264 261 265 270 269 262 261 258 258 258 261 264 263 266 268 268 269 269 266 269 271 271 273 273 274 278 280 283 286 287 284 285 287 288 288 288 291 296
260 260 266 264 263 263 261 264 266 263 261 264 264 262 260 264 263 262 265 269 266 264 266 269 266 264 265 267 269 272 274 275 273 277 279 282 285 286 285 286 288 289 292
263 265 265 265 266 263 263 264 265 261 259 258 262 263 265 268 267 265 265 270 267 265 263 264 265 258 258 262 264 267 271 273 273 273 274 276 279 281 283 286 288 288 292
265 267 266 266 270 263 261 263 263 264 259 257 261 265 266 267 268 268 265 267 267 264 264 262 261 257 256 261 264 265 268 271 272 273 274 274 276 279 280 282 284 287 290
266 267 270 267 266 262 261 264 266 266 264 261 262 266 268 268 268 268 268 268 266 265 263 262 260 258 257 260 261 263 265 268 272 273 274 275 277 278 281 282 284 286 286
269 271 272 273 270 265 264 262 266 269 266 266 267 269 273 274 271 267 266 267 267 266 265 261 259 261 260 262 264 266 268 269 270 270 273 273 274 278 280 284 280 282 286
268 270 271 273 272 270 269 264 264 268 267 268 271 272 273 276 279 273 269 266 268 267 264 264 262 261 263 262 264 268 271 271 271 271 272 275 275 270 272 276 277 279 280
262 266 268 268 267 269 269 270 269 270 271 273 273 274 277 278 280 283 281 272 268 269 267 263 263 264 263 265 265 266 269 271 273 273 272 274 274 273 274 274 275 277 278
256 259 263 265 265 264 265 267 269 272 273 273 274 278 279 281 281 281 285 286 282 274 269 268 267 264 264 265 264 266 268 269 269 271 273 274 274 274 274 276 278 279 280
253 254 259 261 264 266 267 267 268 269 271 272 272 270 276 278 278 279 281 282 284 285 281 276 272 268 269 268 265 266 267 270 269 270 271 273 274 274 275 277 280 283 283
257 257 258 259 263 265 267 268 271 272 273 273 272 272 270 268 272 276 276 277 279 279 282 282 279 274 271 270 271 271 271 272 274 276 277 276 276 278 275 276 281 284 286
259 259 261 261 261 262 265 266 268 270 272 273 274 274 272 268 266 268 271 272 273 275 274 275 277 276 273 271 271 271 271 275 275 278 274 275 275 278 279 283 283 284 285
260 260 260 261 262 262 262 264 266 268 270 271 272 273 274 274 274 272 272 272 271 270 270 270 269 271 271 268 268 268 267 269 270 271 272 273 276 279 279 283 281 281 284
264 265 265 264 263 262 262 261 263 265 266 267 268 269 268 269 272 273 273 273 272 269 268 266 268 267 266 265 268 267 264 266 267 269 272 274 277 277 278 280 279 281 281
268 270 271 269 267 265 264 262 261 261 262 264 265 266 267 268 268 269 269 272 274 271 268 269 265 266 263 260 261 262 264 264 265 267 270 271 273 274 278 279 279 279 278
266 268 269 270 269 268 265 264 266 268 267 266 266 267 268 269 268 268 267 268 269 267 267 269 266 262 260 260 262 264 265 266 267 265 268 269 270 271 269 269 272 274 273
265 266 266 267 268 267 267 267 267 267 269 271 270 268 268 268 269 268 266 265 266 265 265 267 266 264 263 263 264 263 262 264 267 267 266 272 273 273 272 272 270 271 273
266 267 268 268 269 269 269 269 270 270 269 269 270 271 271 270 269 268 268 266 264 264 264 262 265 266 265 264 263 264 265 269 268 269 269 270 271 272 274 274 273 272 272
269 269 268 268 269 270 269 270 270 271 271 270 269 269 270 270 269 269 269 268 267 266 262 260 261 263 263 264 264 264 264 268 272 274 274 273 271 270 271 274 274 276 274
274 274 272 271 269 268 269 268 269 270 272 271 269 268 268 268 269 268 267 267 266 266 264 261 257 257 257 260 262 263 264 267 276 281 275 272 273 270 269 270 271 274 276
274 273 272 273 273 272 272 272 271 270 270 270 270 270 270 270 268 267 266 266 265 264 263 262 259 255 252 253 256 259 261 262 268 272 273 278 271 268 268 269 270 271 273
276 276 274 272 270 270 270 270 270 271 271 269 268 268 268 268 268 268 267 266 264 262 260 258 258 256 254 250 249 252 254 251 250 266 262 261 263 269 270 274 271 272 271
279 277 276 275 273 273 272 271 271 271 271 271 270 270 270 269 269 268 268 267 265 263 260 259 258 257 255 252 248 245 247 244 242 240 248 258 262 266 271 276 276 274 270